Flag Weather past 2 weeks in Miami, Florida, U.S.A.

Now
77 °F

Fog.


Feels Like: 78 °F
Forecast: 75 / 82 °F
Wind: 5 mph from Southeast

Location: Miami International Airport

Current Time: Nov 24, 2014 at 4:34:41 AM

Latest Report: Nov 24, 2014 at 3:53 AM


Visibility: 6 mi

Pressure: 29.95 "Hg

Humidity: 94%

Dew point: 75 °F

Location of MiamiLocation

Historic Weather in Miami — Graph

°F

Miami temperature yesterday

Maximum temperature yesterday: 83 °F (at 12:53 PM)
Minimum temperature yesterday: 77 °F (at 12:53 AM)
Average temperature yesterday: 79 °F

Past Weeks' High & Low Weather Summary

 TemperatureHumidityPressure
High86 °F (Nov 17, 2:53 PM)97% (Nov 21, 4:53 AM)30.23 "Hg (Nov 21, 4:53 AM)
Low55 °F (Nov 19, 2:53 AM)35% (Nov 11, 3:53 PM)29.83 "Hg (Nov 9, 1:53 PM)
Average73 °F77%30.04 "Hg
* Reported Nov 9 2:53 AM — Nov 24 2:53 AM, Miami, Weather by CustomWeather, © 2014

Note: Actual official high and low records may vary slightly from our data, if they occured in-between our weather recording intervals... More about our weather records

Advertising

Miami weather history for previous 24 hours

 ConditionsComfort  
Time TempWeatherWind HumidityBarometerVisibility
2:53 AM
Nov 24
77 °FFog.5 mph94%29.95 "Hg6 mi
1:53 AM78 °FOvercast.6 mph90%29.95 "Hg7 mi
12:53 AM78 °FMostly cloudy.8 mph90%29.95 "Hg7 mi
11:53 PM
Nov 23
78 °FPartly cloudy.10 mph87%29.96 "Hg10 mi
10:53 PM80 °FPartly cloudy.8 mph81%29.96 "Hg10 mi
9:53 PM79 °FPassing clouds.8 mph84%29.97 "Hg10 mi
8:53 PM79 °FPassing clouds.8 mph82%29.98 "Hg10 mi
7:53 PM79 °FPassing clouds.8 mph84%29.96 "Hg10 mi
6:53 PM79 °FPartly cloudy.9 mph84%29.94 "Hg10 mi
5:53 PM79 °FPartly cloudy.8 mph84%29.93 "Hg10 mi
4:53 PM80 °FScattered clouds.10 mph81%29.92 "Hg10 mi
3:53 PM80 °FPartly sunny.15 mph81%29.93 "Hg10 mi
2:53 PM82 °FPartly sunny.16 mph74%29.93 "Hg10 mi
1:53 PM82 °FPartly sunny.14 mph74%29.95 "Hg10 mi
12:53 PM83 °FBroken clouds.16 mph72%29.97 "Hg10 mi
11:53 AM82 °FPartly sunny.17 mph74%30.01 "Hg10 mi
10:53 AM82 °FPartly sunny.16 mph72%30.03 "Hg10 mi
9:53 AM82 °FScattered clouds.18 mph74%30.03 "Hg10 mi
8:53 AM80 °FScattered clouds.13 mph79%30.04 "Hg10 mi
7:53 AM78 °FPassing clouds.10 mph82%30.03 "Hg10 mi
6:53 AM77 °FScattered clouds.13 mph85%30.02 "Hg9 mi
5:53 AM77 °FPassing clouds.9 mph85%30.02 "Hg10 mi
4:53 AM77 °FPassing clouds.10 mph85%30.01 "Hg10 mi
Weather by CustomWeather, © 2014

See weather overviewHow to use our weather pages